Location: Bismarck
(46.7731°N, 100.8200°W)
Time: 22:30:22
(UTC-06:00)

ISS - Pass Details

Date: 02 December 2017
Orbit: 403 x 407 km, 51.6° (Epoch: 12 December)

Event Time Altitude Azimuth Distance (km) Brightness Sun altitude
Rises 23:30:23 0° 291° (WNW) 2,329 - -62.3°
Reaches altitude 10° 23:32:38 10° 280° (W) 1,464 - -62.5°
Maximum altitude 23:35:31 28° 219° (SW) 788 - -62.7°
Drops below altitude 10° 23:38:22 10° 157° (SSE) 1,454 - -63.0°
Sets 23:40:35 0° 146° (SE) 2,308 - -63.2°
